Satellite: MET-2/21 Catalog number: 22782 Epoch time: 11145.69481951 Element set: 0104 Inclination: 082.5474 deg RA of node: 340.7253 deg Eccentricity: 0.0022943 Arg of perigee: 158.3685 deg Mean anomaly: 201.8433 deg Mean motion: 13.83657773 rev/day Decay rate: 2.4e-07 rev/day^2 Epoch rev: 89544 Checksum: 314
Satellite: NOAA-10 Catalog number: 16969 Epoch time: 11145.70958186 Element set: 0512 Inclination: 098.6196 deg RA of node: 175.8012 deg Eccentricity: 0.0011528 Arg of perigee: 294.1763 deg Mean anomaly: 065.8221 deg Mean motion: 14.27461042 rev/day Decay rate: -7.7e-07 rev/day^2 Epoch rev: 28444 Checksum: 311
Satellite: NOAA-16 Catalog number: 26536 Epoch time: 11145.76568446 Element set: 0309 Inclination: 099.1406 deg RA of node: 175.8511 deg Eccentricity: 0.0011462 Arg of perigee: 095.5853 deg Mean anomaly: 264.6600 deg Mean motion: 14.12620404 rev/day Decay rate: 1.94e-06 rev/day^2 Epoch rev: 55019 Checksum: 297
Satellite: NOAA-17 Catalog number: 27453 Epoch time: 11145.76612777 Element set: 0302 Inclination: 098.3799 deg RA of node: 186.5036 deg Eccentricity: 0.0011176 Arg of perigee: 210.9456 deg Mean anomaly: 149.1040 deg Mean motion: 14.24274690 rev/day Decay rate: 1.22e-06 rev/day^2 Epoch rev: 46346 Checksum: 302
Satellite: NOAA-18 Catalog number: 28654 Epoch time: 11145.77065274 Element set: 0782 Inclination: 098.9940 deg RA of node: 096.8645 deg Eccentricity: 0.0014453 Arg of perigee: 164.5319 deg Mean anomaly: 195.6301 deg Mean motion: 14.11478084 rev/day Decay rate: 4.78e-06 rev/day^2 Epoch rev: 30976 Checksum: 341
Satellite: NOAA-11 Catalog number: 19531 Epoch time: 11145.78376559 Element set: 0514 Inclination: 098.7517 deg RA of node: 233.6701 deg Eccentricity: 0.0010443 Arg of perigee: 252.0328 deg Mean anomaly: 107.9700 deg Mean motion: 14.14917183 rev/day Decay rate: 2.03e-06 rev/day^2 Epoch rev: 16958 Checksum: 293
Satellite: NOAA-19 Catalog number: 33591 Epoch time: 11145.83383614 Element set: 0973 Inclination: 098.8250 deg RA of node: 086.3647 deg Eccentricity: 0.0014959 Arg of perigee: 041.9981 deg Mean anomaly: 318.2363 deg Mean motion: 14.11167156 rev/day Decay rate: 1.07e-06 rev/day^2 Epoch rev: 11823 Checksum: 316
Satellite: NOAA-15 Catalog number: 25338 Epoch time: 11145.83542036 Element set: 0827 Inclination: 098.6533 deg RA of node: 132.2860 deg Eccentricity: 0.0011005 Arg of perigee: 152.3607 deg Mean anomaly: 207.8147 deg Mean motion: 14.24916808 rev/day Decay rate: 2.91e-06 rev/day^2 Epoch rev: 67754 Checksum: 297
Satellite: FENGYUN1 Catalog number: 25730 Epoch time: 11145.93869517 Element set: 0346 Inclination: 098.8177 deg RA of node: 107.6249 deg Eccentricity: 0.0025781 Arg of perigee: 016.1020 deg Mean anomaly: 344.0959 deg Mean motion: 14.08608989 rev/day Decay rate: 1.3e-07 rev/day^2 Epoch rev: 61993 Checksum: 322
Satellite: NOAA-14 Catalog number: 23455 Epoch time: 11145.95550100 Element set: 0507 Inclination: 098.8506 deg RA of node: 228.8110 deg Eccentricity: 0.0009492 Arg of perigee: 348.8093 deg Mean anomaly: 011.2865 deg Mean motion: 14.13819569 rev/day Decay rate: 5.0e-08 rev/day^2 Epoch rev: 84593 Checksum: 306
Satellite: OKEAN-4 Catalog number: 23317 Epoch time: 11145.96705413 Element set: 0583 Inclination: 082.5419 deg RA of node: 033.8888 deg Eccentricity: 0.0021310 Arg of perigee: 187.6132 deg Mean anomaly: 172.4763 deg Mean motion: 14.83066474 rev/day Decay rate: 1.99e-06 rev/day^2 Epoch rev: 89725 Checksum: 318
Satellite: RESURS Catalog number: 25394 Epoch time: 11145.97758128 Element set: 0808 Inclination: 098.3011 deg RA of node: 150.2254 deg Eccentricity: 0.0001281 Arg of perigee: 345.8353 deg Mean anomaly: 014.2792 deg Mean motion: 14.24233636 rev/day Decay rate: -1.1e-07 rev/day^2 Epoch rev: 66914 Checksum: 280
Satellite: NOAA-12 Catalog number: 21263 Epoch time: 11145.97991747 Element set: 0023 Inclination: 098.7501 deg RA of node: 163.8622 deg Eccentricity: 0.0011381 Arg of perigee: 252.1684 deg Mean anomaly: 107.8255 deg Mean motion: 14.25712368 rev/day Decay rate: 5.1e-07 rev/day^2 Epoch rev: 04124 Checksum: 282
Satellite: MET-3/5 Catalog number: 21655 Epoch time: 11146.86269627 Element set: 119 Inclination: 082.5580 deg RA of node: 065.8407 deg Eccentricity: 0.0012542 Arg of perigee: 205.2408 deg Mean anomaly: 154.8066 deg Mean motion: 13.17029193 rev/day Decay rate: 5.1e-07 rev/day^2 Epoch rev: 95091 Checksum: 297
Satellite: OKEAN-0 Catalog number: 25860 Epoch time: 11146.91111136 Element set: 317 Inclination: 097.8824 deg RA of node: 113.9440 deg Eccentricity: 0.0001967 Arg of perigee: 062.5858 deg Mean anomaly: 297.5544 deg Mean motion: 14.73782739 rev/day Decay rate: 1.28e-06 rev/day^2 Epoch rev: 63752 Checksum: 316
/EX SB KEPS @ AMSAT $ORB11146.M Orbital Elements 11146.MISC
HR AMSAT ORBITAL ELEMENTS FOR MANNED AND MISCELLANEOUS SATELLITES FROM WA5QGD FORT WORTH,TX May 26, 2011 Send Subscribe/unsubscribe to KEPS at http://www.amsat.org/mailman/listinfo/keps BID: ORB11146.M TO ALL RADIO AMATEURS BT
Satellite: HUBBLE Catalog number: 20580 Epoch time: 11144.25373681 Element set: 769 Inclination: 028.4697 deg RA of node: 172.7905 deg Eccentricity: 0.0003576 Arg of perigee: 224.3693 deg Mean anomaly: 135.6442 deg Mean motion: 15.01362480 rev/day Decay rate: 6.48e-06 rev/day^2 Epoch rev: 95605 Checksum: 307
Satellite: AAUSAT2 Catalog number: 32788 Epoch time: 11145.70034264 Element set: 0986 Inclination: 097.8476 deg RA of node: 210.1490 deg Eccentricity: 0.0014129 Arg of perigee: 250.6259 deg Mean anomaly: 109.3409 deg Mean motion: 14.82585827 rev/day Decay rate: 8.74e-06 rev/day^2 Epoch rev: 16624 Checksum: 318
Satellite: CP6 Catalog number: 35004 Epoch time: 11145.73595245 Element set: 0634 Inclination: 040.4589 deg RA of node: 273.6376 deg Eccentricity: 0.0019704 Arg of perigee: 070.9728 deg Mean anomaly: 289.3222 deg Mean motion: 15.68625821 rev/day Decay rate: 7.1485e-04 rev/day^2 Epoch rev: 11398 Checksum: 327
Satellite: DO-64 Catalog number: 32789 Epoch time: 11145.78443797 Element set: 2 Inclination: 097.8580 deg RA of node: 211.1945 deg Eccentricity: 0.0014181 Arg of perigee: 246.2904 deg Mean anomaly: 113.6789 deg Mean motion: 14.83030690 rev/day Decay rate: 7.30e-06 rev/day^2 Epoch rev: 16626 Checksum: 314
Satellite: HAWKSAT1 Catalog number: 35003 Epoch time: 11145.81454443 Element set: 0634 Inclination: 040.4552 deg RA of node: 280.6469 deg Eccentricity: 0.0021412 Arg of perigee: 065.6096 deg Mean anomaly: 294.6959 deg Mean motion: 15.63032113 rev/day Decay rate: 4.8297e-04 rev/day^2 Epoch rev: 11392 Checksum: 289
Satellite: TACSAT-3 Catalog number: 35001 Epoch time: 11145.87656075 Element set: 0609 Inclination: 040.4554 deg RA of node: 308.1966 deg Eccentricity: 0.0022620 Arg of perigee: 039.4627 deg Mean anomaly: 320.7834 deg Mean motion: 15.48410461 rev/day Decay rate: 1.1712e-04 rev/day^2 Epoch rev: 11362 Checksum: 275
Satellite: CO-66 Catalog number: 32791 Epoch time: 11146.21842101 Element set: 988 Inclination: 097.8499 deg RA of node: 210.3905 deg Eccentricity: 0.0014708 Arg of perigee: 245.7534 deg Mean anomaly: 114.2173 deg Mean motion: 14.82098916 rev/day Decay rate: 8.61e-06 rev/day^2 Epoch rev: 16625 Checksum: 319
Satellite: FALCON Catalog number: 30776 Epoch time: 11146.34527386 Element set: 93 Inclination: 035.4322 deg RA of node: 119.7833 deg Eccentricity: 0.0002061 Arg of perigee: 270.3915 deg Mean anomaly: 089.6565 deg Mean motion: 15.04597286 rev/day Decay rate: 1.029e-05 rev/day^2 Epoch rev: 23175 Checksum: 297
Satellite: CO-58 Catalog number: 28895 Epoch time: 11146.47864792 Element set: 883 Inclination: 097.9694 deg RA of node: 023.7030 deg Eccentricity: 0.0016523 Arg of perigee: 289.7702 deg Mean anomaly: 070.1702 deg Mean motion: 14.60099771 rev/day Decay rate: 9.8e-07 rev/day^2 Epoch rev: 29707 Checksum: 349
Satellite: RS-30 Catalog number: 32953 Epoch time: 11146.57652159 Element set: 764 Inclination: 082.5011 deg RA of node: 176.1579 deg Eccentricity: 0.0020464 Arg of perigee: 075.5326 deg Mean anomaly: 284.8023 deg Mean motion: 12.43013065 rev/day Decay rate: 1.0e-07 rev/day^2 Epoch rev: 13640 Checksum: 270
Satellite: CAPE1 Catalog number: 31130 Epoch time: 11146.59596276 Element set: 184 Inclination: 097.9004 deg RA of node: 171.8403 deg Eccentricity: 0.0101255 Arg of perigee: 248.2177 deg Mean anomaly: 110.8224 deg Mean motion: 14.52388099 rev/day Decay rate: 1.98e-06 rev/day^2 Epoch rev: 21750 Checksum: 291
Satellite: COMPASS Catalog number: 32787 Epoch time: 11146.74632124 Element set: 996 Inclination: 097.8476 deg RA of node: 210.9595 deg Eccentricity: 0.0014527 Arg of perigee: 244.5609 deg Mean anomaly: 115.4098 deg Mean motion: 14.82402770 rev/day Decay rate: 8.41e-06 rev/day^2 Epoch rev: 16638 Checksum: 323
Satellite: METEOR-M Catalog number: 35865 Epoch time: 11146.75846885 Element set: 401 Inclination: 098.7075 deg RA of node: 202.1624 deg Eccentricity: 0.0003255 Arg of perigee: 086.1381 deg Mean anomaly: 274.0114 deg Mean motion: 14.21838770 rev/day Decay rate: 1.76e-06 rev/day^2 Epoch rev: 8754 Checksum: 299
Satellite: RS-38 Catalog number: 35869 Epoch time: 11146.76116777 Element set: 394 Inclination: 098.7039 deg RA of node: 202.2014 deg Eccentricity: 0.0005394 Arg of perigee: 089.8034 deg Mean anomaly: 270.3712 deg Mean motion: 14.22011889 rev/day Decay rate: 1.77e-06 rev/day^2 Epoch rev: 8755 Checksum: 321
Satellite: PHARMSAT Catalog number: 35002 Epoch time: 11146.80591608 Element set: 558 Inclination: 040.4698 deg RA of node: 300.2066 deg Eccentricity: 0.0024360 Arg of perigee: 052.9179 deg Mean anomaly: 307.3863 deg Mean motion: 15.48118575 rev/day Decay rate: 9.645e-05 rev/day^2 Epoch rev: 11379 Checksum: 302
